"Pseudo-MPEC" for P11IPVd

Created 2023 Sep 24 16:22:12 UT using Find_Orb

Click here for an explanation of pseudo-MPECs

 
 Astrometry: 
     P11IPVd* C2023 09 08/p:EwxSrAstrometry*o]CWc8x+*,r=7!Yb=DO+SEERBw+:(0?xAF51
     P11IPVd  C2023 09 08(6?guK9l=oK%uh#$MV#redacted;r.EJm9Rn$KFES6?t1jgclickF51
     P11IPVd  C2023 09 08#-\(g2Kj6xhere!:qc9foruWexplanationS'%1R%V_;u3'@^']gF51

Station data:
(F51) Pan-STARRS 1, Haleakala  (N20.707234 W156.255910)  US/Hawaii.
   Observers J. Bulger, T. Lowe, A. Schultz, M. Willman. Measurers K.
   Chambers, S. Chastel, T. de Boer, L. Denneau, J. Fairlamb, H. Flewelling,
   M. Huber, C.-C. Lin, E. Magnier, Y. Ramanjooloo, R. Wainscoat, R. Weryk.
   1.8-m Ritchey-Chrétien + CCD.

Orbital elements:  P11IPVd
   Perihelion 2024 Mar 7.44344 +/- 178 TT = 10:38:32 (JD 2460376.94344)
Epoch 2023 Sep  8.0 TT = JDT 2460195.5   Earth MOID: 0.4115      AutoNEOCP
M 300.76545180 +/- 48               (J2000 ecliptic)
n   0.32646288 +/- 0.238            Peri.  299.96968 +/- 110
a   2.08888005 +/- 1.01             Node   151.08829 +/- 40
e   0.3862930 +/- 0.283             Incl.   22.83217 +/- 26
P   3.02                   H 20.13  G  0.15   U 11.8  SR
q 1.28196026 +/- 0.74    Q 2.89579984 +/- 36.5
From 3 observations 2023 Sept. 8 (34.1 min); mean residual 0".01
Residuals in arcseconds: 
230908 F51  .01-  .01-    230908 F51  .02+  .01+    230908 F51  .01-  .01-    

Ephemerides (geocentric):
Date (UTC) HH   RA             Dec           delta  r     elong  mag " sig PA
---- --------  ------------   ------------  ------ ------ -----  --- --------
2023 09 24 16  23 13 36.255   -23 16 36.82  .93143 1.8827 153.4 22.1  34d  80
2023 09 24 17  23 13 33.743   -23 17 31.38  .93142 1.8825 153.3 22.1  34d  80
2023 09 24 18  23 13 31.231   -23 18 25.89  .93142 1.8822 153.3 22.1  34d  80
2023 09 24 19  23 13 28.721   -23 19 20.36  .93142 1.8820 153.2 22.1  34d  80
2023 09 24 20  23 13 26.211   -23 20 14.80  .93142 1.8818 153.2 22.1  34d  80
2023 09 24 21  23 13 23.703   -23 21 09.19  .93141 1.8816 153.1 22.1  34d  79
2023 09 24 22  23 13 21.195   -23 22 03.54  .93141 1.8814 153.1 22.1  34d  79
2023 09 24 23  23 13 18.689   -23 22 57.85  .93141 1.8812 153.0 22.1  34d  79
2023 09 25 00  23 13 16.183   -23 23 52.13  .93141 1.8810 153.0 22.1  34d  79
2023 09 25 01  23 13 13.679   -23 24 46.36  .93141 1.8808 152.9 22.1  34d  79
2023 09 25 02  23 13 11.175   -23 25 40.55  .93141 1.8806 152.9 22.1  34d  79
2023 09 25 03  23 13 08.673   -23 26 34.70  .93141 1.8804 152.8 22.1  34d  79
2023 09 25 04  23 13 06.171   -23 27 28.81  .93142 1.8802 152.8 22.1  35d  79
2023 09 25 05  23 13 03.671   -23 28 22.88  .93142 1.8800 152.7 22.1  35d  79
2023 09 25 06  23 13 01.172   -23 29 16.90  .93142 1.8798 152.7 22.1  35d  79
2023 09 25 07  23 12 58.674   -23 30 10.89  .93142 1.8796 152.6 22.1  35d  79
2023 09 25 08  23 12 56.176   -23 31 04.84  .93143 1.8794 152.6 22.1  35d  79
2023 09 25 09  23 12 53.680   -23 31 58.74  .93143 1.8792 152.5 22.1  35d  79
2023 09 25 10  23 12 51.185   -23 32 52.60  .93143 1.8790 152.5 22.1  35d  79
2023 09 25 11  23 12 48.692   -23 33 46.42  .93144 1.8788 152.4 22.1  35d  79
2023 09 25 12  23 12 46.199   -23 34 40.20  .93144 1.8785 152.4 22.2  35d  79
2023 09 25 13  23 12 43.707   -23 35 33.94  .93145 1.8783 152.3 22.2  35d  79
2023 09 25 14  23 12 41.217   -23 36 27.64  .93145 1.8781 152.3 22.2  35d  79
2023 09 25 15  23 12 38.727   -23 37 21.30  .93146 1.8779 152.2 22.2  35d  79
2023 09 25 16  23 12 36.239   -23 38 14.91  .93146 1.8777 152.2 22.2  35d  79
2023 09 25 17  23 12 33.752   -23 39 08.48  .93147 1.8775 152.1 22.2  35d  79
2023 09 25 18  23 12 31.266   -23 40 02.01  .93148 1.8773 152.1 22.2  35d  79
2023 09 25 19  23 12 28.781   -23 40 55.50  .93149 1.8771 152.0 22.2  35d  79
2023 09 25 20  23 12 26.298   -23 41 48.95  .93149 1.8769 152.0 22.2  35d  79
2023 09 25 21  23 12 23.815   -23 42 42.35  .93150 1.8767 151.9 22.2  35d  79
2023 09 25 22  23 12 21.334   -23 43 35.71  .93151 1.8765 151.9 22.2  35d  79
2023 09 25 23  23 12 18.854   -23 44 29.03  .93152 1.8763 151.8 22.2  35d  79
2023 09 26 00  23 12 16.375   -23 45 22.31  .93153 1.8761 151.8 22.2  35d  79
2023 09 26 01  23 12 13.898   -23 46 15.54  .93154 1.8759 151.7 22.2  35d  79
2023 09 26 02  23 12 11.421   -23 47 08.73  .93155 1.8757 151.7 22.2  35d  79
2023 09 26 03  23 12 08.946   -23 48 01.88  .93156 1.8755 151.6 22.2  35d  79
2023 09 26 04  23 12 06.472   -23 48 54.99  .93157 1.8753 151.6 22.2  35d  79
2023 09 26 05  23 12 03.999   -23 49 48.05  .93158 1.8751 151.5 22.2  35d  79
2023 09 26 06  23 12 01.528   -23 50 41.07  .93159 1.8748 151.5 22.2  35d  78
2023 09 26 07  23 11 59.058   -23 51 34.05  .93161 1.8746 151.4 22.2  35d  78
2023 09 26 08  23 11 56.589   -23 52 26.99  .93162 1.8744 151.4 22.2  35d  78
2023 09 26 09  23 11 54.121   -23 53 19.88  .93163 1.8742 151.3 22.2  35d  78
2023 09 26 10  23 11 51.655   -23 54 12.73  .93164 1.8740 151.3 22.2  35d  78
2023 09 26 11  23 11 49.189   -23 55 05.54  .93166 1.8738 151.2 22.2  35d  78
2023 09 26 12  23 11 46.726   -23 55 58.30  .93167 1.8736 151.2 22.2  35d  78
2023 09 26 13  23 11 44.263   -23 56 51.02  .93169 1.8734 151.1 22.2  35d  78
2023 09 26 14  23 11 41.802   -23 57 43.69  .93170 1.8732 151.1 22.2  35d  78
2023 09 26 15  23 11 39.342   -23 58 36.33  .93172 1.8730 151.0 22.2  35d  78